www.pogodaiklimat.ru
Время
и дата
06:53 30.12
07:53 30.12
08:15 30.12
08:53 30.12
09:53 30.12
10:53 30.12
11:53 30.12
12:53 30.12
13:53 30.12
14:02 30.12
14:10 30.12
14:53 30.12
15:03 30.12
15:17 30.12
15:53 30.12
16:03 30.12
16:53 30.12
17:04 30.12
17:24 30.12
17:40 30.12
17:53 30.12
18:53 30.12
19:53 30.12
20:45 30.12
20:53 30.12
21:14 30.12
21:38 30.12
21:49 30.12
21:53 30.12
22:29 30.12
22:41 30.12
22:53 30.12
23:53 30.12
00:53 31.12
01:53 31.12
02:53 31.12
03:53 31.12
04:53 31.12
05:53 31.12
06:53 31.12
07:53 31.12
08:53 31.12
09:53 31.12
10:53 31.12
11:53 31.12
12:53 31.12
13:53 31.12
14:53 31.12
Ветер
(напр.,м/с)
Видим. Явления Облачность Т
(С)
Тd
(С)
f
(%)
Тe
(С)
Тes
(С)
Комфортность P
(гПа)
Po
(гПа)
Тmin
(С)
Tmax
(С)
R
(мм)
R24
(мм)
S
(см)
СЗ 1 8 км слабый дождь, дымка 10/10 120 м +5.0 +4.4 96 +1 +1 1012.0 922.1 7.1
С 2 8 км дождь, дымка 10/10 120 м +4.4 +3.9 97 0 0 1012.6 922.7
С 1 10 км слабый дождь, дымка 10/10 150 м +4.4 +3.3 93 +1 +1 923.0
С 1 8 км слабый дождь, дымка 10/10 150 м +4.4 +3.9 97 +1 +1 1013.3 923.4
СЗ 1 8 км слабый дождь, дымка 10/10 150 м +5.0 +3.9 93 +1 +1 1013.7 923.7 +4.4 +5.6 13.2
СЗ 2 11 км слабый дождь 10/10 150 м +5.0 +4.4 96 +1 +1 1013.2 923.0
З 2 16 км слабый дождь 10/10 150 м +5.6 +4.4 92 +2 +2 1012.4 922.4
З 2 6 км дождь, дымка 10/10 240 м +5.6 +4.4 92 +2 +2 1011.9 922.1 1.3
З 2 16 км слабый дождь 10/10 240 м +6.1 +5.0 93 +2 +2 1011.4 921.8
З 1 16 км 10/10 300 м +6.1 +5.0 93 +3 +3 921.8
З 1 16 км 10/10 240 м +6.7 +5.0 89 +4 +4 921.5
З 1 16 км слабый дождь 10/10 270 м +6.7 +5.0 89 +4 +4 1011.1 921.5
З 1 16 км 10/10 270 м +6.7 +4.4 85 +4 +4 921.5
З 1 16 км слабый дождь 10/10 360 м +6.7 +4.4 85 +4 +4 921.2
ЮЗ 1 16 км 10/10 240 м +6.7 +4.4 85 +4 +4 1010.8 921.2 +5.0 +6.7 2.8
ЮЗ 1 16 км 10/10 300 м +6.7 +4.4 85 +4 +4 921.2
З 1 16 км слабый дождь 10/10 360 м +6.1 +4.4 89 +4 +4 1010.2 920.6
СЗ 1 16 км 10/10 360 м +6.1 +4.4 89 +4 +4 920.6
СЗ 1 16 км 10/10 270 м +6.1 +4.4 89 +4 +4 920.9
СЗ 1 16 км 10/10 330 м +6.1 +5.0 93 +3 +3 920.9
СЗ 1 16 км 10/10 330 м +6.1 +5.0 93 +3 +3 1010.8 921.2
штиль 0 16 км 10/10 420 м +6.1 +5.0 93 +5 +5 1010.8 920.9 0.3
штиль 0 16 км 10/10 420 м +6.1 +4.4 89 +5 +5 1010.5 920.9
16 км 5/5 330 м +5.6 +3.9 89 +5 +5 920.6
16 км 2/2 330 м +5.6 +3.9 89 +5 +5 1010.4 920.6
штиль 0 16 км 8/8 300 м +5.6 +4.4 92 +5 +5 920.6
Ю 1 16 км 8/8 270 м +5.6 +3.9 89 +3 +3 920.9
Ю 1 16 км 8/8 270 м +6.0 +4.0 87 +4 +4 920.9
Ю 1 16 км 8/8 270 м +5.6 +4.4 92 +3 +3 1010.6 920.9 +5.0 +6.7 0.3
ЮВ 1 14 км 10/10 270 м +5.6 +3.9 89 +2 +2 920.9
ЮВ 1 14 км 5/5 270 м +5.0 +3.9 93 +1 +1 920.6
ЮВ 2 16 км 2/2 270 м +5.0 +3.9 93 +1 +1 1010.3 920.6
ЮВ 1 16 км 2/2 1170 м +3.9 +3.3 96 0 0 1009.9 920.3
Ю 2 16 км ясно +2.8 +2.8 100 -2 -2 1009.5 919.6
штиль 0 11 км ясно +2.8 +1.7 92 +2 +2 1009.0 919.3
штиль 0 11 км ясно +2.2 +1.7 96 +1 +1 1008.1 918.4
З 1 10 км дымка ясно +2.2 +1.7 96 -1 -1 1007.6 917.8 +1.7 +5.6 16.3
Ю 2 16 км ясно +2.2 +1.1 92 -3 -3 1006.6 917.2
З 2 16 км ясно +4.4 +2.2 86 -1 -1 1006.2 916.9
З 2 16 км ясно +6.1 +2.2 76 +2 +2 1006.2 917.2
ЮЗ 2 16 км ясно +6.7 +2.8 76 +3 +3 1006.2 917.2
З 3 16 км ясно +8.3 +3.3 71 +4 +5 1006.5 917.5
СЗ 4 16 км ясно +8.3 +3.3 71 +4 +4 1007.2 918.1 +1.7 +9.4
СЗ 2 16 км ясно +10.0 +3.9 66 +7 +10 1006.3 917.5
З 4 16 км ясно +10.6 +3.9 63 +7 +7 1005.3 916.3
З 5
{7}
16 км ясно +10.0 +3.9 66 +5 +5 1004.5 915.6
З 7 16 км ясно +9.4 +2.8 63 +4 +4 1004.7 915.6
З 6
{8}
16 км ясно +8.3 +2.2 65 +3 +3 1004.4 915.3
Местоположение метеостанции Palmdale Production Flight Plant: широта 34.6297 долгота -118.0814 высота над уровнем моря 775 м.
В архиве по умолчанию представлена погода в Палмдейле за последние 1-2 суток. Обновление информации о фактической погоде в базе происходит ежечасно! Архивные данные за месяц целиком и за предыдущие месяцы Вы можете получить, выбрав интересующий диапазон дат из раскрывающегося списка и нажав кнопку "Ввод!".
Внимание! Архив погоды МЕТАР в базе сайта по станциям, не включенным в климатический монитор, хранится не более 60 дней. Нет смысла пытаться выбрать более раннюю дату.
*Определитесь, кто Вы:
Внимание! Время в таблицах - местное (без учета летнего времени). Для получения всемирного времени необходимо вычесть поправку, которая равна -8 ч.
Смотрите также архив погоды в соседних городах и на ближайших метеорологических станциях:
Партнеры нашего сайта:      
Пояснения к столбцам:
  • Ветер - указаны скорость ветра в м/с - средняя за 10 мин, порывы в срок и между сроками (в фигурных скобках) и направление, откуда дует ветер: С - северный,
  • СВ - северо-восточный, В - восточный, ЮВ - юго-восточный, Ю - южный, ЮЗ - юго-западный, З - западный, СЗ - северо-западный.
  • Видимость - горизонтальная дальность видимости в метрах или километрах. При видимости от 1 до 10 км при отсутствии осадков обычно наблюдается дымка, при ухудшении видимости до 1 км и менее - туман. В сухую погоду видимость может ухудшаться дымом, пылью или мглою.
  • Явления - указаны атмосферные явления, наблюдавшиеся в срок или в последний час перед сроком; фигурными скобками обозначены явления, наблюдавшиеся между сроками (за 1-3 часа до срока); квадратными скобками обозначены град или гололедные отложения с указанием их диаметра в мм.
  • Облачность - указаны через наклонную черту общая и нижняя облачность в баллах и высота нижней границы облаков в метрах; квадратными скобками обозначены формы облаков: Ci - перистые, Cs - перисто-слоистые, Cc - перисто-кучевые, Ac - высококучевые, As - высокослоистые, Sc - слоисто-кучевые, Ns - слоисто-дождевые, Cu - кучевые, Cb - кучево-дождевые. Подробнее классификацию облаков см. в Атласе облаков (PDF).
  • T - Температура воздуха - температура, измеренная на высоте 2 м над землей.
  • Td - Температура точки росы - температура, при понижении до которой содержащийся в воздухе водяной пар достигнет насыщения.
  • f - Относительная влажность воздуха - влажноcть воздуха, измеренная на высоте 2 м над землей.
  • Te - Эффективная температура - температура, которую ощущает одетый по сезону человек в тени. Характеристика душности погоды. При расчете учитывается влияние влажности воздуха и скорости ветра на теплоощущения человека.
  • Tes - Эффективная температура на солнце - температура, которую ощущает человек, с поправкой на солнечный нагрев. Характеристика знойности погоды. Зависит от высоты солнца над горизонтом, облачности и скорости ветра. Ночью, в пасмурную погоду, а также при ветре 12 м/с и более поправка равна нулю.
  • P - Атмосферное давление - приведенное к уровню моря атмосферное давление.
  • Po - Атмосферное давление - измеренное на уровне метеостанции атмосферное давление.
  • Tmin - Минимальная температура - минимум температуры воздуха на высоте 2 м над землей.
  • Tmax - Максимальная температура - максимум температуры воздуха на высоте 2 м над землей.
  • R - Количество осадков - Количество выпавших осадков за период времени, мм. При наведении курсора мыши на число - период времени, за который выпало указанное количество осадков.
  • R24 - Количество осадков - Количество выпавших осадков за 24 часа, мм.
  • S - Снежный покров - Высота снежного покрова, см. При наведении курсора мыши на число - состояние снежного покрова и степень покрытия местности в баллах.